Time,TemperatureF,DewpointF,PressureIn,WindDirection,WindDirectionDegrees,WindSpeedMPH,WindSpeedGustMPH,Humidity,HourlyPrecipIn,Conditions,Clouds,dailyrainin,SoftwareType,DateUTC
2013-02-23 00:00:00,46.4,44.6,30.03,SSW,206,0.0,0.0,95,0.00,,,0.00,WUHU216WMR968SP,2013-02-23 05:00:00,
2013-02-23 00:05:00,46.2,44.6,30.03,SW,214,3.3,5.4,96,0.00,,,0.00,WUHU216WMR968SP,2013-02-23 05:05:00,
2013-02-23 00:10:00,46.2,44.6,30.03,SW,224,0.0,5.4,96,0.00,,,0.00,WUHU216WMR968SP,2013-02-23 05:10:00,
2013-02-23 00:15:00,46.2,44.6,30.03,SW,233,3.3,7.4,96,0.00,,,0.00,WUHU216WMR968SP,2013-02-23 05:15:00,
2013-02-23 00:20:00,46.2,44.6,30.06,SW,223,0.0,7.4,96,0.00,,,0.00,WUHU216WMR968SP,2013-02-23 05:20:00,
2013-02-23 00:25:00,46.0,46.4,30.06,SW,223,0.0,5.4,97,0.00,,,0.00,WUHU216WMR968SP,2013-02-23 05:25:00,
2013-02-23 00:30:00,46.0,46.4,30.06,SW,223,3.3,5.4,97,0.00,,,0.00,WUHU216WMR968SP,2013-02-23 05:30:00,
2013-02-23 00:35:00,46.0,46.4,30.06,SW,232,0.0,6.0,97,0.00,,,0.00,WUHU216WMR968SP,2013-02-23 05:35:00,
2013-02-23 00:41:00,46.0,46.4,30.06,West,279,0.0,6.0,97,0.00,,,0.00,WUHU216WMR968SP,2013-02-23 05:41:00,
2013-02-23 00:46:00,46.0,46.4,30.06,WNW,298,0.0,0.0,97,0.00,,,0.00,WUHU216WMR968SP,2013-02-23 05:46:00,
2013-02-23 00:51:00,46.0,46.4,30.03,WSW,238,0.0,0.0,97,0.00,,,0.00,WUHU216WMR968SP,2013-02-23 05:51:00,
2013-02-23 00:56:00,45.9,46.4,30.03,WSW,238,0.0,0.0,97,0.00,,,0.00,WUHU216WMR968SP,2013-02-23 05:56:00,
2013-02-23 01:01:00,45.9,46.4,30.03,WSW,256,0.0,3.3,97,0.00,,,0.00,WUHU216WMR968SP,2013-02-23 06:01:00,
2013-02-23 01:06:00,45.9,46.4,30.03,SSW,211,0.0,3.3,97,0.00,,,0.00,WUHU216WMR968SP,2013-02-23 06:06:00,
2013-02-23 01:11:00,45.9,46.4,30.03,SSW,208,0.0,0.0,97,0.00,,,0.00,WUHU216WMR968SP,2013-02-23 06:11:00,
2013-02-23 01:16:00,45.9,46.4,30.03,SSW,213,0.0,0.0,97,0.00,,,0.00,WUHU216WMR968SP,2013-02-23 06:16:00,
2013-02-23 01:21:00,45.9,46.4,30.03,SSW,213,0.0,0.0,98,0.00,,,0.00,WUHU216WMR968SP,2013-02-23 06:21:00,
2013-02-23 01:26:00,45.9,46.4,30.03,SW,233,0.0,4.6,98,0.00,,,0.00,WUHU216WMR968SP,2013-02-23 06:26:00,
2013-02-23 01:31:00,45.9,46.4,30.03,SW,226,3.3,4.6,98,0.00,,,0.00,WUHU216WMR968SP,2013-02-23 06:31:00,
2013-02-23 01:36:00,45.9,46.4,30.03,SW,226,0.0,4.6,98,0.00,,,0.00,WUHU216WMR968SP,2013-02-23 06:36:00,
2013-02-23 01:41:00,45.9,46.4,30.03,SW,226,0.0,4.1,98,0.00,,,0.00,WUHU216WMR968SP,2013-02-23 06:41:00,
2013-02-23 01:46:00,45.9,46.4,30.03,SW,226,0.0,0.0,98,0.00,,,0.00,WUHU216WMR968SP,2013-02-23 06:46:00,
2013-02-23 01:51:00,45.9,46.4,30.03,SE,143,3.3,4.6,98,0.00,,,0.00,WUHU216WMR968SP,2013-02-23 06:51:00,
2013-02-23 01:56:00,45.7,46.4,30.03,SE,144,0.0,4.6,98,0.00,,,0.00,WUHU216WMR968SP,2013-02-23 06:56:00,
2013-02-23 02:01:00,45.9,46.4,30.03,South,185,0.0,4.6,98,0.00,,,0.00,WUHU216WMR968SP,2013-02-23 07:01:00,
2013-02-23 02:06:00,45.9,46.4,30.03,West,267,0.0,6.0,98,0.00,,,0.00,WUHU216WMR968SP,2013-02-23 07:06:00,
2013-02-23 02:11:00,45.9,46.4,30.03,West,267,0.0,6.0,98,0.00,,,0.00,WUHU216WMR968SP,2013-02-23 07:11:00,
2013-02-23 02:16:00,45.9,46.4,30.03,West,267,0.0,0.0,98,0.00,,,0.00,WUHU216WMR968SP,2013-02-23 07:16:00,
2013-02-23 02:21:00,45.9,46.4,30.03,West,267,0.0,0.0,98,0.00,,,0.00,WUHU216WMR968SP,2013-02-23 07:21:00,
2013-02-23 02:26:00,45.7,46.4,30.03,West,267,0.0,0.0,98,0.00,,,0.00,WUHU216WMR968SP,2013-02-23 07:26:00,
2013-02-23 02:31:00,45.7,46.4,30.03,West,267,0.0,0.0,98,0.00,,,0.00,WUHU216WMR968SP,2013-02-23 07:31:00,
2013-02-23 02:36:00,45.7,46.4,30.03,West,267,0.0,0.0,98,0.00,,,0.00,WUHU216WMR968SP,2013-02-23 07:36:00,
2013-02-23 02:41:00,45.7,46.4,30.03,South,184,0.0,0.0,98,0.00,,,0.00,WUHU216WMR968SP,2013-02-23 07:41:00,
2013-02-23 02:46:00,45.7,46.4,30.03,South,184,0.0,0.0,98,0.00,,,0.00,WUHU216WMR968SP,2013-02-23 07:46:00,
2013-02-23 02:51:00,45.5,46.4,30.03,South,184,0.0,0.0,98,0.00,,,0.00,WUHU216WMR968SP,2013-02-23 07:51:00,
2013-02-23 02:56:00,45.5,46.4,30.03,South,184,0.0,0.0,98,0.00,,,0.00,WUHU216WMR968SP,2013-02-23 07:56:00,
2013-02-23 03:01:00,45.7,46.4,30.03,South,172,0.0,0.0,98,0.00,,,0.00,WUHU216WMR968SP,2013-02-23 08:01:00,
2013-02-23 03:06:00,45.5,46.4,30.00,South,172,0.0,0.0,98,0.00,,,0.00,WUHU216WMR968SP,2013-02-23 08:06:00,
2013-02-23 03:11:00,45.5,46.4,30.00,South,172,0.0,0.0,98,0.00,,,0.00,WUHU216WMR968SP,2013-02-23 08:11:00,
2013-02-23 03:16:00,45.5,46.4,30.00,SE,143,0.0,0.0,98,0.00,,,0.00,WUHU216WMR968SP,2013-02-23 08:16:00,
2013-02-23 03:21:00,45.5,46.4,29.97,SE,137,0.0,0.0,98,0.00,,,0.00,WUHU216WMR968SP,2013-02-23 08:21:00,
2013-02-23 03:26:00,45.3,44.6,29.97,SE,143,0.0,0.0,98,0.00,,,0.00,WUHU216WMR968SP,2013-02-23 08:26:00,
2013-02-23 03:31:00,45.3,44.6,29.97,SE,143,0.0,0.0,98,0.00,,,0.00,WUHU216WMR968SP,2013-02-23 08:31:00,
2013-02-23 03:36:00,45.3,44.6,29.97,SE,143,0.0,0.0,98,0.00,,,0.00,WUHU216WMR968SP,2013-02-23 08:36:00,
2013-02-23 03:41:00,45.1,44.6,29.97,SE,143,0.0,0.0,98,0.00,,,0.00,WUHU216WMR968SP,2013-02-23 08:41:00,
2013-02-23 03:46:00,45.1,44.6,29.97,SE,143,0.0,0.0,98,0.00,,,0.00,WUHU216WMR968SP,2013-02-23 08:46:00,
2013-02-23 03:51:00,45.1,44.6,29.97,SE,143,0.0,0.0,98,0.00,,,0.00,WUHU216WMR968SP,2013-02-23 08:51:00,
2013-02-23 03:56:00,45.1,44.6,29.97,SE,139,0.0,0.0,98,0.00,,,0.00,WUHU216WMR968SP,2013-02-23 08:56:00,
2013-02-23 04:01:00,45.1,44.6,29.97,SE,139,0.0,0.0,98,0.00,,,0.00,WUHU216WMR968SP,2013-02-23 09:01:00,
2013-02-23 04:06:00,45.1,44.6,29.97,SE,139,0.0,0.0,98,0.00,,,0.00,WUHU216WMR968SP,2013-02-23 09:06:00,
2013-02-23 04:11:00,45.1,44.6,29.97,SE,139,0.0,0.0,98,0.00,,,0.00,WUHU216WMR968SP,2013-02-23 09:11:00,
2013-02-23 04:16:00,45.0,44.6,29.97,SE,139,0.0,0.0,98,0.00,,,0.00,WUHU216WMR968SP,2013-02-23 09:16:00,
2013-02-23 04:21:00,45.0,44.6,29.97,SE,139,0.0,0.0,98,0.00,,,0.00,WUHU216WMR968SP,2013-02-23 09:21:00,
2013-02-23 04:26:00,44.8,44.6,29.97,SE,139,0.0,0.0,98,0.00,,,0.00,WUHU216WMR968SP,2013-02-23 09:26:00,
2013-02-23 04:31:00,44.8,44.6,29.97,SE,139,0.0,0.0,98,0.00,,,0.00,WUHU216WMR968SP,2013-02-23 09:31:00,
2013-02-23 04:36:00,44.8,44.6,29.97,SE,139,0.0,0.0,98,0.00,,,0.00,WUHU216WMR968SP,2013-02-23 09:36:00,
2013-02-23 04:41:00,44.6,44.6,29.97,SE,139,0.0,0.0,98,0.00,,,0.00,WUHU216WMR968SP,2013-02-23 09:41:00,
2013-02-23 04:46:00,44.6,44.6,29.97,SE,139,0.0,0.0,98,0.00,,,0.00,WUHU216WMR968SP,2013-02-23 09:46:00,
2013-02-23 04:51:00,44.6,44.6,29.97,SE,139,0.0,0.0,98,0.00,,,0.00,WUHU216WMR968SP,2013-02-23 09:51:00,
2013-02-23 04:56:00,44.6,44.6,29.97,SE,139,0.0,0.0,98,0.00,,,0.00,WUHU216WMR968SP,2013-02-23 09:56:00,
2013-02-23 05:01:00,44.6,44.6,29.97,SE,139,0.0,0.0,98,0.00,,,0.00,WUHU216WMR968SP,2013-02-23 10:01:00,
2013-02-23 05:06:00,44.4,44.6,29.97,SE,139,0.0,0.0,98,0.00,,,0.00,WUHU216WMR968SP,2013-02-23 10:06:00,
2013-02-23 05:11:00,44.4,44.6,29.97,SE,139,0.0,0.0,98,0.00,,,0.00,WUHU216WMR968SP,2013-02-23 10:11:00,
2013-02-23 05:16:00,44.4,44.6,29.97,SE,139,0.0,0.0,98,0.00,,,0.00,WUHU216WMR968SP,2013-02-23 10:16:00,
2013-02-23 05:21:00,44.4,44.6,29.97,ESE,122,0.0,0.0,98,0.00,,,0.00,WUHU216WMR968SP,2013-02-23 10:21:00,
2013-02-23 05:26:00,44.4,44.6,29.97,ESE,122,0.0,0.0,98,0.00,,,0.00,WUHU216WMR968SP,2013-02-23 10:26:00,
2013-02-23 05:31:00,44.4,44.6,29.97,ESE,122,0.0,0.0,98,0.00,,,0.00,WUHU216WMR968SP,2013-02-23 10:31:00,
2013-02-23 05:36:00,44.4,44.6,29.97,ESE,122,0.0,0.0,98,0.00,,,0.00,WUHU216WMR968SP,2013-02-23 10:36:00,
2013-02-23 05:41:00,44.4,44.6,29.97,ESE,122,0.0,0.0,98,0.00,,,0.00,WUHU216WMR968SP,2013-02-23 10:41:00,
2013-02-23 05:46:00,44.6,44.6,29.97,ESE,122,0.0,0.0,98,0.00,,,0.00,WUHU216WMR968SP,2013-02-23 10:46:00,
2013-02-23 05:51:00,44.6,44.6,29.97,ESE,122,0.0,0.0,98,0.00,,,0.00,WUHU216WMR968SP,2013-02-23 10:51:00,
2013-02-23 05:56:00,44.6,44.6,29.97,ESE,122,0.0,0.0,98,0.00,,,0.00,WUHU216WMR968SP,2013-02-23 10:56:00,
2013-02-23 06:01:00,44.6,44.6,29.97,ESE,122,0.0,0.0,98,0.00,,,0.00,WUHU216WMR968SP,2013-02-23 11:01:00,
2013-02-23 06:06:00,44.6,44.6,29.97,ESE,122,0.0,0.0,98,0.00,,,0.00,WUHU216WMR968SP,2013-02-23 11:06:00,
2013-02-23 06:11:00,44.6,44.6,29.97,ESE,122,0.0,0.0,98,0.00,,,0.00,WUHU216WMR968SP,2013-02-23 11:11:00,
2013-02-23 06:16:00,44.6,44.6,29.97,ESE,122,0.0,0.0,98,0.00,,,0.00,WUHU216WMR968SP,2013-02-23 11:16:00,
2013-02-23 06:21:00,44.6,44.6,29.97,ESE,122,0.0,0.0,98,0.00,,,0.00,WUHU216WMR968SP,2013-02-23 11:21:00,
2013-02-23 06:26:00,44.6,44.6,29.97,ESE,122,0.0,0.0,98,0.00,,,0.00,WUHU216WMR968SP,2013-02-23 11:26:00,
2013-02-23 06:31:00,44.8,44.6,29.97,ESE,122,0.0,0.0,98,0.00,,,0.00,WUHU216WMR968SP,2013-02-23 11:31:00,
2013-02-23 06:36:00,44.8,44.6,29.97,ESE,122,0.0,0.0,98,0.00,,,0.00,WUHU216WMR968SP,2013-02-23 11:36:00,
2013-02-23 06:41:00,44.8,44.6,29.97,ESE,122,0.0,0.0,98,0.00,,,0.00,WUHU216WMR968SP,2013-02-23 11:41:00,
2013-02-23 06:46:00,44.8,44.6,29.97,ESE,122,0.0,0.0,98,0.00,,,0.00,WUHU216WMR968SP,2013-02-23 11:46:00,
2013-02-23 06:51:00,44.8,44.6,29.97,ESE,122,0.0,0.0,98,0.00,,,0.00,WUHU216WMR968SP,2013-02-23 11:51:00,
2013-02-23 06:56:00,44.8,44.6,29.97,ESE,122,0.0,0.0,98,0.00,,,0.00,WUHU216WMR968SP,2013-02-23 11:56:00,
2013-02-23 07:01:00,44.6,44.6,29.97,ESE,122,0.0,0.0,98,0.00,,,0.00,WUHU216WMR968SP,2013-02-23 12:01:00,
2013-02-23 07:06:00,44.6,44.6,29.94,ESE,122,0.0,0.0,98,0.00,,,0.00,WUHU216WMR968SP,2013-02-23 12:06:00,
2013-02-23 07:11:00,44.6,44.6,29.94,ESE,122,0.0,0.0,98,0.00,,,0.00,WUHU216WMR968SP,2013-02-23 12:11:00,
2013-02-23 07:16:00,44.4,44.6,29.94,ESE,122,0.0,0.0,98,0.00,,,0.00,WUHU216WMR968SP,2013-02-23 12:16:00,
2013-02-23 07:21:00,44.4,44.6,29.97,ESE,122,0.0,0.0,98,0.00,,,0.00,WUHU216WMR968SP,2013-02-23 12:21:00,
2013-02-23 07:26:00,44.4,44.6,29.97,ESE,122,0.0,0.0,98,0.00,,,0.00,WUHU216WMR968SP,2013-02-23 12:26:00,
2013-02-23 07:31:00,44.4,44.6,29.97,ESE,122,0.0,0.0,98,0.00,,,0.00,WUHU216WMR968SP,2013-02-23 12:31:00,
2013-02-23 07:36:00,44.2,44.6,29.97,ESE,122,0.0,0.0,98,0.00,,,0.00,WUHU216WMR968SP,2013-02-23 12:36:00,
2013-02-23 07:41:00,44.2,44.6,29.97,ESE,122,0.0,0.0,98,0.00,,,0.00,WUHU216WMR968SP,2013-02-23 12:41:00,
2013-02-23 07:46:00,44.2,44.6,29.97,ESE,122,0.0,0.0,98,0.00,,,0.00,WUHU216WMR968SP,2013-02-23 12:46:00,
2013-02-23 07:51:00,44.2,44.6,29.97,ESE,122,0.0,0.0,98,0.00,,,0.00,WUHU216WMR968SP,2013-02-23 12:51:00,
2013-02-23 07:56:00,44.4,44.6,29.97,ESE,122,0.0,0.0,98,0.00,,,0.00,WUHU216WMR968SP,2013-02-23 12:56:00,
2013-02-23 08:01:00,44.6,44.6,29.97,ESE,122,0.0,0.0,98,0.00,,,0.00,WUHU216WMR968SP,2013-02-23 13:01:00,
2013-02-23 08:06:00,44.8,44.6,29.97,ESE,122,0.0,0.0,98,0.00,,,0.00,WUHU216WMR968SP,2013-02-23 13:06:00,
2013-02-23 08:11:00,45.0,44.6,29.97,ESE,122,0.0,0.0,98,0.00,,,0.00,WUHU216WMR968SP,2013-02-23 13:11:00,
2013-02-23 08:16:00,45.1,44.6,29.97,ESE,122,0.0,0.0,98,0.00,,,0.00,WUHU216WMR968SP,2013-02-23 13:16:00,
2013-02-23 08:21:00,45.3,44.6,29.97,ESE,122,0.0,0.0,98,0.00,,,0.00,WUHU216WMR968SP,2013-02-23 13:21:00,
2013-02-23 08:26:00,45.1,44.6,29.97,ESE,122,0.0,0.0,98,0.00,,,0.00,WUHU216WMR968SP,2013-02-23 13:26:00,
2013-02-23 08:31:00,45.1,44.6,29.97,ESE,122,0.0,0.0,98,0.00,,,0.00,WUHU216WMR968SP,2013-02-23 13:31:00,
2013-02-23 08:36:00,45.3,44.6,29.97,ESE,122,0.0,0.0,98,0.00,,,0.00,WUHU216WMR968SP,2013-02-23 13:36:00,
2013-02-23 08:41:00,45.3,44.6,29.97,ESE,122,0.0,0.0,98,0.00,,,0.00,WUHU216WMR968SP,2013-02-23 13:41:00,
2013-02-23 08:46:00,45.5,46.4,29.97,ESE,122,0.0,0.0,98,0.00,,,0.00,WUHU216WMR968SP,2013-02-23 13:46:00,
2013-02-23 08:51:00,45.5,46.4,29.97,ESE,122,0.0,0.0,98,0.00,,,0.00,WUHU216WMR968SP,2013-02-23 13:51:00,
2013-02-23 08:56:00,45.5,46.4,29.97,East,93,0.0,0.0,98,0.00,,,0.00,WUHU216WMR968SP,2013-02-23 13:56:00,
2013-02-23 09:01:00,45.7,46.4,29.97,SE,129,0.0,0.0,98,0.00,,,0.00,WUHU216WMR968SP,2013-02-23 14:01:00,
2013-02-23 09:06:00,46.0,46.4,29.97,SE,129,0.0,0.0,98,0.00,,,0.00,WUHU216WMR968SP,2013-02-23 14:06:00,
2013-02-23 09:11:00,46.2,46.4,29.97,SE,129,0.0,0.0,98,0.00,,,0.00,WUHU216WMR968SP,2013-02-23 14:11:00,
2013-02-23 09:16:00,46.2,46.4,29.97,SSW,195,0.0,0.0,98,0.00,,,0.00,WUHU216WMR968SP,2013-02-23 14:16:00,
2013-02-23 09:21:00,46.2,46.4,29.97,SSW,196,0.0,0.0,98,0.00,,,0.00,WUHU216WMR968SP,2013-02-23 14:21:00,
2013-02-23 09:26:00,46.2,46.4,29.97,SSW,197,0.0,0.0,98,0.00,,,0.00,WUHU216WMR968SP,2013-02-23 14:26:00,
2013-02-23 09:31:00,46.4,46.4,29.97,West,277,0.0,4.1,98,0.00,,,0.00,WUHU216WMR968SP,2013-02-23 14:31:00,
2013-02-23 09:36:00,46.0,46.4,29.97,West,277,0.0,4.1,98,0.00,,,0.00,WUHU216WMR968SP,2013-02-23 14:36:00,
2013-02-23 09:41:00,46.0,46.4,29.97,WSW,257,0.0,0.0,98,0.00,,,0.00,WUHU216WMR968SP,2013-02-23 14:41:00,
2013-02-23 09:46:00,45.9,46.4,29.97,WSW,257,0.0,0.0,98,0.00,,,0.00,WUHU216WMR968SP,2013-02-23 14:46:00,
2013-02-23 09:51:00,45.9,46.4,29.97,WSW,257,0.0,0.0,98,0.00,,,0.00,WUHU216WMR968SP,2013-02-23 14:51:00,
2013-02-23 09:56:00,45.9,46.4,29.97,WSW,252,0.0,0.0,98,0.00,,,0.00,WUHU216WMR968SP,2013-02-23 14:56:00,
2013-02-23 10:01:00,46.2,46.4,29.97,WSW,252,0.0,0.0,98,0.00,,,0.00,WUHU216WMR968SP,2013-02-23 15:01:00,
2013-02-23 10:06:00,46.6,46.4,29.97,SE,146,0.0,0.0,98,0.00,,,0.00,WUHU216WMR968SP,2013-02-23 15:06:00,
2013-02-23 10:11:00,46.9,46.4,29.97,SE,146,0.0,0.0,98,0.00,,,0.00,WUHU216WMR968SP,2013-02-23 15:11:00,
2013-02-23 10:16:00,47.3,48.2,29.97,ENE,63,0.0,0.0,98,0.00,,,0.00,WUHU216WMR968SP,2013-02-23 15:16:00,
2013-02-23 10:21:00,47.8,48.2,29.94,SSW,209,0.0,0.0,98,0.00,,,0.00,WUHU216WMR968SP,2013-02-23 15:21:00,
2013-02-23 10:26:00,48.6,48.2,29.94,WSW,258,0.0,0.0,98,0.00,,,0.00,WUHU216WMR968SP,2013-02-23 15:26:00,
2013-02-23 10:31:00,49.8,50.0,29.94,West,263,0.0,0.0,98,0.00,,,0.00,WUHU216WMR968SP,2013-02-23 15:31:00,
2013-02-23 10:36:00,49.3,50.0,29.97,SW,231,0.0,0.0,98,0.00,,,0.00,WUHU216WMR968SP,2013-02-23 15:36:00,
2013-02-23 10:41:00,49.1,50.0,29.97,WSW,244,0.0,5.4,98,0.00,,,0.00,WUHU216WMR968SP,2013-02-23 15:41:00,
2013-02-23 10:46:00,48.6,48.2,29.97,WNW,300,3.3,6.0,98,0.00,,,0.00,WUHU216WMR968SP,2013-02-23 15:46:00,
2013-02-23 10:51:00,48.7,48.2,29.97,West,264,3.3,6.0,98,0.00,,,0.00,WUHU216WMR968SP,2013-02-23 15:51:00,
2013-02-23 10:56:00,49.1,50.0,29.97,WSW,258,0.0,5.4,98,0.00,,,0.00,WUHU216WMR968SP,2013-02-23 15:56:00,
2013-02-23 11:01:00,48.7,48.2,29.97,SW,221,0.0,5.4,98,0.00,,,0.00,WUHU216WMR968SP,2013-02-23 16:01:00,
2013-02-23 11:06:00,48.7,48.2,29.97,West,266,0.0,6.0,98,0.00,,,0.00,WUHU216WMR968SP,2013-02-23 16:06:00,
2013-02-23 11:11:00,49.3,50.0,29.97,SW,229,0.0,6.0,98,0.00,,,0.00,WUHU216WMR968SP,2013-02-23 16:11:00,
2013-02-23 11:16:00,50.5,50.0,29.97,WNW,287,0.0,4.1,98,0.00,,,0.00,WUHU216WMR968SP,2013-02-23 16:16:00,
2013-02-23 11:21:00,51.6,51.8,29.94,West,261,0.0,0.0,98,0.00,,,0.00,WUHU216WMR968SP,2013-02-23 16:21:00,
2013-02-23 11:26:00,52.3,51.8,29.94,West,266,0.0,0.0,98,0.00,,,0.00,WUHU216WMR968SP,2013-02-23 16:26:00,
2013-02-23 11:31:00,52.3,51.8,29.94,WSW,243,0.0,5.4,97,0.00,,,0.00,WUHU216WMR968SP,2013-02-23 16:31:00,
2013-02-23 11:36:00,52.7,51.8,29.94,WSW,240,4.6,6.8,95,0.00,,,0.00,WUHU216WMR968SP,2013-02-23 16:36:00,
2013-02-23 11:42:00,53.1,51.8,29.94,West,260,4.1,6.8,94,0.00,,,0.00,WUHU216WMR968SP,2013-02-23 16:42:00,
2013-02-23 11:47:00,53.4,51.8,29.94,WSW,241,5.4,7.4,92,0.00,,,0.00,WUHU216WMR968SP,2013-02-23 16:47:00,
2013-02-23 11:52:00,53.6,50.0,29.94,SW,222,4.6,8.1,90,0.00,,,0.00,WUHU216WMR968SP,2013-02-23 16:52:00,
2013-02-23 11:57:00,54.1,50.0,29.94,West,275,0.0,8.1,88,0.00,,,0.00,WUHU216WMR968SP,2013-02-23 16:57:00,
2013-02-23 12:02:00,55.2,51.8,29.94,SW,222,0.0,7.4,86,0.00,,,0.00,WUHU216WMR968SP,2013-02-23 17:02:00,
2013-02-23 12:07:00,56.5,51.8,29.94,West,274,0.0,7.4,84,0.00,,,0.00,WUHU216WMR968SP,2013-02-23 17:07:00,
2013-02-23 12:12:00,56.8,51.8,29.94,West,272,0.0,7.4,82,0.00,,,0.00,WUHU216WMR968SP,2013-02-23 17:12:00,
2013-02-23 12:17:00,57.6,51.8,29.94,WNW,300,3.3,7.4,80,0.00,,,0.00,WUHU216WMR968SP,2013-02-23 17:17:00,
2013-02-23 12:22:00,57.7,50.0,29.94,WSW,248,4.1,8.7,78,0.00,,,0.00,WUHU216WMR968SP,2013-02-23 17:22:00,
2013-02-23 12:27:00,57.7,50.0,29.94,WSW,238,3.3,8.7,76,0.00,,,0.00,WUHU216WMR968SP,2013-02-23 17:27:00,
2013-02-23 12:32:00,57.2,50.0,29.94,WSW,246,4.1,8.7,75,0.00,,,0.00,WUHU216WMR968SP,2013-02-23 17:32:00,
2013-02-23 12:37:00,58.1,50.0,29.94,WNW,301,4.6,8.1,74,0.00,,,0.00,WUHU216WMR968SP,2013-02-23 17:37:00,
2013-02-23 12:42:00,58.6,50.0,29.94,SW,223,5.4,6.0,73,0.08,,,0.08,WUHU216WMR968SP,2013-02-23 17:42:00,
2013-02-23 12:47:00,59.0,50.0,29.94,SW,229,4.1,6.0,72,0.08,,,0.08,WUHU216WMR968SP,2013-02-23 17:47:00,
2013-02-23 12:52:00,58.5,50.0,29.94,SW,221,6.0,8.1,71,0.08,,,0.08,WUHU216WMR968SP,2013-02-23 17:52:00,
2013-02-23 12:57:00,56.5,48.2,29.94,WSW,238,4.1,8.1,71,0.08,,,0.08,WUHU216WMR968SP,2013-02-23 17:57:00,
2013-02-23 13:02:00,56.5,48.2,29.94,WSW,253,0.0,6.0,73,0.08,,,0.08,WUHU216WMR968SP,2013-02-23 18:02:00,
2013-02-23 13:07:00,57.9,48.2,29.94,WNW,294,3.3,6.0,72,0.08,,,0.08,WUHU216WMR968SP,2013-02-23 18:07:00,
2013-02-23 13:12:00,59.0,50.0,29.94,WSW,251,5.4,7.4,70,0.08,,,0.08,WUHU216WMR968SP,2013-02-23 18:12:00,
2013-02-23 13:17:00,59.0,48.2,29.94,WSW,241,4.6,8.1,68,0.08,,,0.08,WUHU216WMR968SP,2013-02-23 18:17:00,
2013-02-23 13:22:00,58.6,48.2,29.94,WNW,282,4.1,8.1,67,0.08,,,0.08,WUHU216WMR968SP,2013-02-23 18:22:00,
2013-02-23 13:27:00,58.6,46.4,29.94,SW,229,4.1,8.1,65,0.08,,,0.08,WUHU216WMR968SP,2013-02-23 18:27:00,
2013-02-23 13:32:00,59.7,46.4,29.94,WSW,245,0.0,8.1,65,0.08,,,0.08,WUHU216WMR968SP,2013-02-23 18:32:00,
2013-02-23 13:37:00,59.9,48.2,29.91,WSW,240,4.6,6.0,63,0.00,,,0.08,WUHU216WMR968SP,2013-02-23 18:37:00,
2013-02-23 13:42:00,60.6,48.2,29.91,WSW,240,4.1,6.0,63,0.00,,,0.08,WUHU216WMR968SP,2013-02-23 18:42:00,
2013-02-23 13:47:00,60.4,46.4,29.91,WSW,241,3.3,6.0,61,0.00,,,0.08,WUHU216WMR968SP,2013-02-23 18:47:00,
2013-02-23 13:52:00,61.3,46.4,29.91,WNW,289,3.3,6.0,60,0.00,,,0.08,WUHU216WMR968SP,2013-02-23 18:52:00,
2013-02-23 13:57:00,61.7,48.2,29.91,WNW,283,4.1,6.0,59,0.00,,,0.08,WUHU216WMR968SP,2013-02-23 18:57:00,
2013-02-23 14:02:00,62.4,48.2,29.91,North,0,4.1,6.0,58,0.00,,,0.08,WUHU216WMR968SP,2013-02-23 19:02:00,
2013-02-23 14:07:00,62.6,46.4,29.91,NNW,345,0.0,4.6,57,0.00,,,0.08,WUHU216WMR968SP,2013-02-23 19:07:00,
2013-02-23 14:12:00,62.8,46.4,29.91,SW,233,0.0,4.6,57,0.00,,,0.08,WUHU216WMR968SP,2013-02-23 19:12:00,
2013-02-23 14:17:00,61.5,46.4,29.91,West,260,3.3,6.0,58,0.00,,,0.08,WUHU216WMR968SP,2013-02-23 19:17:00,
2013-02-23 14:22:00,61.5,46.4,29.91,WSW,240,0.0,7.4,59,0.00,,,0.08,WUHU216WMR968SP,2013-02-23 19:22:00,
2013-02-23 14:27:00,61.9,48.2,29.91,WSW,239,4.1,7.4,59,0.00,,,0.08,WUHU216WMR968SP,2013-02-23 19:27:00,
2013-02-23 14:32:00,61.3,46.4,29.91,NNW,327,4.1,7.4,58,0.00,,,0.08,WUHU216WMR968SP,2013-02-23 19:32:00,
2013-02-23 14:37:00,61.5,46.4,29.88,WSW,258,0.0,7.4,59,0.00,,,0.08,WUHU216WMR968SP,2013-02-23 19:37:00,
2013-02-23 14:42:00,61.5,46.4,29.88,WSW,245,3.3,5.4,59,0.00,,,0.08,WUHU216WMR968SP,2013-02-23 19:42:00,
2013-02-23 14:47:00,61.7,48.2,29.88,West,274,0.0,5.4,59,0.00,,,0.08,WUHU216WMR968SP,2013-02-23 19:47:00,
2013-02-23 14:52:00,62.2,48.2,29.88,WNW,299,4.6,8.7,58,0.00,,,0.08,WUHU216WMR968SP,2013-02-23 19:52:00,
2013-02-23 14:57:00,62.2,48.2,29.88,NW,305,4.1,8.7,58,0.00,,,0.08,WUHU216WMR968SP,2013-02-23 19:57:00,
2013-02-23 15:02:00,62.4,48.2,29.88,West,263,0.0,7.4,58,0.00,,,0.08,WUHU216WMR968SP,2013-02-23 20:02:00,
2013-02-23 15:07:00,61.9,46.4,29.88,SW,229,4.6,7.4,57,0.00,,,0.08,WUHU216WMR968SP,2013-02-23 20:07:00,
2013-02-23 15:12:00,61.7,48.2,29.88,WNW,297,0.0,7.4,58,0.00,,,0.08,WUHU216WMR968SP,2013-02-23 20:12:00,
2013-02-23 15:17:00,61.7,48.2,29.88,West,274,0.0,7.4,58,0.00,,,0.08,WUHU216WMR968SP,2013-02-23 20:17:00,
2013-02-23 15:22:00,61.9,48.2,29.88,WSW,250,0.0,7.4,58,0.00,,,0.08,WUHU216WMR968SP,2013-02-23 20:22:00,
2013-02-23 15:27:00,61.7,48.2,29.88,South,171,0.0,7.4,58,0.00,,,0.08,WUHU216WMR968SP,2013-02-23 20:27:00,
2013-02-23 15:32:00,61.5,46.4,29.88,WSW,256,4.1,6.0,58,0.00,,,0.08,WUHU216WMR968SP,2013-02-23 20:32:00,
2013-02-23 15:38:00,61.3,46.4,29.91,SW,216,4.1,11.4,58,0.00,,,0.08,WUHU216WMR968SP,2013-02-23 20:38:00,
2013-02-23 15:42:00,61.2,46.4,29.91,SSW,201,4.6,11.4,58,0.00,,,0.08,WUHU216WMR968SP,2013-02-23 20:42:00,
2013-02-23 15:47:00,60.8,46.4,29.91,SW,230,4.6,9.5,58,0.00,,,0.08,WUHU216WMR968SP,2013-02-23 20:47:00,
2013-02-23 15:53:00,60.8,46.4,29.91,SSE,149,3.3,9.5,58,0.00,,,0.08,WUHU216WMR968SP,2013-02-23 20:53:00,
2013-02-23 15:58:00,60.8,46.4,29.91,South,184,5.4,8.1,59,0.00,,,0.08,WUHU216WMR968SP,2013-02-23 20:58:00,
2013-02-23 16:03:00,60.3,46.4,29.91,SE,128,5.4,9.5,59,0.00,,,0.08,WUHU216WMR968SP,2013-02-23 21:03:00,
2013-02-23 16:08:00,60.1,46.4,29.88,South,176,3.3,9.5,60,0.00,,,0.08,WUHU216WMR968SP,2013-02-23 21:08:00,
2013-02-23 16:13:00,60.1,46.4,29.88,SSW,198,0.0,8.7,61,0.00,,,0.08,WUHU216WMR968SP,2013-02-23 21:13:00,
2013-02-23 16:18:00,60.1,48.2,29.88,SSE,163,0.0,8.1,62,0.00,,,0.08,WUHU216WMR968SP,2013-02-23 21:18:00,
2013-02-23 16:23:00,59.9,48.2,29.88,SW,219,4.6,8.1,62,0.00,,,0.08,WUHU216WMR968SP,2013-02-23 21:23:00,
2013-02-23 16:28:00,59.7,46.4,29.88,SSW,200,3.3,9.5,62,0.00,,,0.08,WUHU216WMR968SP,2013-02-23 21:28:00,
2013-02-23 16:33:00,59.4,46.4,29.88,SW,230,5.4,9.5,63,0.00,,,0.08,WUHU216WMR968SP,2013-02-23 21:33:00,
2013-02-23 16:38:00,59.2,46.4,29.88,SE,141,5.4,8.7,63,0.00,,,0.08,WUHU216WMR968SP,2013-02-23 21:38:00,
2013-02-23 16:43:00,59.2,46.4,29.88,SSE,164,4.6,9.5,63,0.00,,,0.08,WUHU216WMR968SP,2013-02-23 21:43:00,
2013-02-23 16:48:00,59.0,46.4,29.88,ESE,117,0.0,9.5,64,0.00,,,0.08,WUHU216WMR968SP,2013-02-23 21:48:00,
2013-02-23 16:53:00,58.8,48.2,29.88,SW,233,3.3,6.0,66,0.00,,,0.08,WUHU216WMR968SP,2013-02-23 21:53:00,
2013-02-23 16:58:00,58.8,48.2,29.88,SW,234,3.3,5.4,66,0.00,,,0.08,WUHU216WMR968SP,2013-02-23 21:58:00,
2013-02-23 17:03:00,58.6,48.2,29.88,SW,234,0.0,5.4,66,0.00,,,0.08,WUHU216WMR968SP,2013-02-23 22:03:00,
2013-02-23 17:08:00,58.5,48.2,29.88,SW,234,0.0,4.1,66,0.00,,,0.08,WUHU216WMR968SP,2013-02-23 22:08:00,
2013-02-23 17:13:00,58.1,48.2,29.88,SW,234,0.0,0.0,67,0.00,,,0.08,WUHU216WMR968SP,2013-02-23 22:13:00,
2013-02-23 17:18:00,57.9,46.4,29.88,SW,234,0.0,0.0,67,0.00,,,0.08,WUHU216WMR968SP,2013-02-23 22:18:00,
2013-02-23 17:23:00,57.7,46.4,29.88,SSW,196,3.3,6.0,67,0.00,,,0.08,WUHU216WMR968SP,2013-02-23 22:23:00,
2013-02-23 17:28:00,57.6,46.4,29.88,SSW,213,0.0,6.0,68,0.00,,,0.08,WUHU216WMR968SP,2013-02-23 22:28:00,
2013-02-23 17:33:00,57.6,46.4,29.88,SSW,213,0.0,5.4,69,0.00,,,0.08,WUHU216WMR968SP,2013-02-23 22:33:00,
2013-02-23 17:38:00,57.2,46.4,29.88,SSW,213,0.0,0.0,69,0.00,,,0.08,WUHU216WMR968SP,2013-02-23 22:38:00,
2013-02-23 17:43:00,57.0,46.4,29.88,SW,222,0.0,5.4,69,0.00,,,0.08,WUHU216WMR968SP,2013-02-23 22:43:00,
2013-02-23 17:48:00,56.7,46.4,29.88,SW,226,0.0,6.0,69,0.00,,,0.08,WUHU216WMR968SP,2013-02-23 22:48:00,
2013-02-23 17:53:00,56.5,46.4,29.88,SW,227,0.0,6.0,69,0.00,,,0.08,WUHU216WMR968SP,2013-02-23 22:53:00,
2013-02-23 17:58:00,56.3,48.2,29.88,SW,227,0.0,5.4,70,0.00,,,0.08,WUHU216WMR968SP,2013-02-23 22:58:00,
2013-02-23 18:03:00,55.9,46.4,29.88,SW,228,0.0,4.1,70,0.00,,,0.08,WUHU216WMR968SP,2013-02-23 23:03:00,
2013-02-23 18:08:00,55.8,46.4,29.88,SW,228,0.0,4.1,70,0.00,,,0.08,WUHU216WMR968SP,2013-02-23 23:08:00,
2013-02-23 18:13:00,55.4,46.4,29.88,SW,228,0.0,0.0,71,0.00,,,0.08,WUHU216WMR968SP,2013-02-23 23:13:00,
2013-02-23 18:18:00,54.9,46.4,29.88,SW,228,0.0,0.0,72,0.00,,,0.08,WUHU216WMR968SP,2013-02-23 23:18:00,
2013-02-23 18:23:00,54.7,46.4,29.88,SW,228,0.0,0.0,73,0.00,,,0.08,WUHU216WMR968SP,2013-02-23 23:23:00,
2013-02-23 18:28:00,54.3,44.6,29.88,SW,228,0.0,0.0,73,0.00,,,0.08,WUHU216WMR968SP,2013-02-23 23:28:00,
2013-02-23 18:33:00,54.0,46.4,29.88,SW,228,0.0,0.0,74,0.00,,,0.08,WUHU216WMR968SP,2013-02-23 23:33:00,
2013-02-23 18:38:00,53.6,46.4,29.88,SW,228,0.0,0.0,74,0.00,,,0.08,WUHU216WMR968SP,2013-02-23 23:38:00,
2013-02-23 18:43:00,53.1,46.4,29.88,SW,228,0.0,0.0,75,0.00,,,0.08,WUHU216WMR968SP,2013-02-23 23:43:00,
2013-02-23 18:48:00,52.7,46.4,29.88,SW,228,0.0,0.0,76,0.00,,,0.08,WUHU216WMR968SP,2013-02-23 23:48:00,
2013-02-23 18:53:00,52.2,44.6,29.88,SW,228,0.0,0.0,77,0.00,,,0.08,WUHU216WMR968SP,2013-02-23 23:53:00,
2013-02-23 18:58:00,51.4,46.4,29.88,SW,228,0.0,0.0,79,0.00,,,0.08,WUHU216WMR968SP,2013-02-23 23:58:00,
2013-02-23 19:03:00,51.1,46.4,29.88,SW,228,0.0,0.0,80,0.00,,,0.08,WUHU216WMR968SP,2013-02-24 00:03:00,
2013-02-23 19:08:00,50.7,44.6,29.88,SW,228,0.0,0.0,80,0.00,,,0.08,WUHU216WMR968SP,2013-02-24 00:08:00,
2013-02-23 19:14:00,50.4,44.6,29.88,SW,228,0.0,0.0,81,0.00,,,0.08,WUHU216WMR968SP,2013-02-24 00:14:00,
2013-02-23 19:19:00,50.2,44.6,29.88,SW,228,0.0,0.0,82,0.00,,,0.08,WUHU216WMR968SP,2013-02-24 00:19:00,
2013-02-23 19:24:00,50.0,44.6,29.88,SW,228,0.0,0.0,83,0.00,,,0.08,WUHU216WMR968SP,2013-02-24 00:24:00,
2013-02-23 19:29:00,49.8,44.6,29.88,SW,228,0.0,0.0,84,0.00,,,0.08,WUHU216WMR968SP,2013-02-24 00:29:00,
2013-02-23 19:34:00,49.6,44.6,29.88,SW,228,0.0,0.0,84,0.00,,,0.08,WUHU216WMR968SP,2013-02-24 00:34:00,
2013-02-23 19:39:00,49.1,44.6,29.88,SW,228,0.0,0.0,84,0.00,,,0.08,WUHU216WMR968SP,2013-02-24 00:39:00,
2013-02-23 19:44:00,48.7,44.6,29.88,SW,228,0.0,0.0,85,0.00,,,0.08,WUHU216WMR968SP,2013-02-24 00:44:00,
2013-02-23 19:49:00,48.6,44.6,29.88,SW,228,0.0,0.0,85,0.00,,,0.08,WUHU216WMR968SP,2013-02-24 00:49:00,
2013-02-23 19:54:00,48.4,44.6,29.88,SW,228,0.0,0.0,86,0.00,,,0.08,WUHU216WMR968SP,2013-02-24 00:54:00,
2013-02-23 19:59:00,48.0,44.6,29.88,SW,228,0.0,0.0,87,0.00,,,0.08,WUHU216WMR968SP,2013-02-24 00:59:00,
2013-02-23 20:04:00,47.7,44.6,29.88,SW,228,0.0,0.0,87,0.00,,,0.08,WUHU216WMR968SP,2013-02-24 01:04:00,
2013-02-23 20:09:00,47.5,44.6,29.91,SW,228,0.0,0.0,88,0.00,,,0.08,WUHU216WMR968SP,2013-02-24 01:09:00,
2013-02-23 20:14:00,47.3,44.6,29.91,SW,228,0.0,0.0,88,0.00,,,0.08,WUHU216WMR968SP,2013-02-24 01:14:00,
2013-02-23 20:19:00,47.1,42.8,29.91,SW,228,0.0,0.0,89,0.00,,,0.08,WUHU216WMR968SP,2013-02-24 01:19:00,
2013-02-23 20:24:00,46.9,42.8,29.91,SW,228,0.0,0.0,90,0.00,,,0.08,WUHU216WMR968SP,2013-02-24 01:24:00,
2013-02-23 20:29:00,46.8,42.8,29.91,SW,228,0.0,0.0,90,0.00,,,0.08,WUHU216WMR968SP,2013-02-24 01:29:00,
2013-02-23 20:34:00,46.4,42.8,29.91,SW,228,0.0,0.0,90,0.00,,,0.08,WUHU216WMR968SP,2013-02-24 01:34:00,
2013-02-23 20:39:00,46.2,44.6,29.91,SW,228,0.0,0.0,91,0.00,,,0.08,WUHU216WMR968SP,2013-02-24 01:39:00,
2013-02-23 20:44:00,46.0,44.6,29.91,SW,228,0.0,0.0,91,0.00,,,0.08,WUHU216WMR968SP,2013-02-24 01:44:00,
2013-02-23 20:49:00,46.2,44.6,29.91,SW,228,0.0,0.0,92,0.00,,,0.08,WUHU216WMR968SP,2013-02-24 01:49:00,
2013-02-23 20:54:00,46.0,44.6,29.91,SW,228,0.0,0.0,93,0.00,,,0.08,WUHU216WMR968SP,2013-02-24 01:54:00,
2013-02-23 20:59:00,45.9,44.6,29.91,SW,228,0.0,0.0,93,0.00,,,0.08,WUHU216WMR968SP,2013-02-24 01:59:00,
2013-02-23 21:04:00,45.7,44.6,29.91,SW,228,0.0,0.0,93,0.00,,,0.08,WUHU216WMR968SP,2013-02-24 02:04:00,
2013-02-23 21:09:00,46.0,44.6,29.91,SW,228,0.0,0.0,94,0.00,,,0.08,WUHU216WMR968SP,2013-02-24 02:09:00,
2013-02-23 21:14:00,45.7,44.6,29.91,SW,228,0.0,0.0,94,0.00,,,0.08,WUHU216WMR968SP,2013-02-24 02:14:00,
2013-02-23 21:19:00,45.7,44.6,29.91,SW,228,0.0,0.0,94,0.00,,,0.08,WUHU216WMR968SP,2013-02-24 02:19:00,
2013-02-23 21:24:00,45.5,44.6,29.91,SW,228,0.0,0.0,94,0.00,,,0.08,WUHU216WMR968SP,2013-02-24 02:24:00,
2013-02-23 21:29:00,45.5,44.6,29.91,SW,228,0.0,0.0,95,0.00,,,0.08,WUHU216WMR968SP,2013-02-24 02:29:00,
2013-02-23 21:34:00,45.5,44.6,29.91,SW,228,0.0,0.0,95,0.00,,,0.08,WUHU216WMR968SP,2013-02-24 02:34:00,
2013-02-23 21:39:00,45.5,44.6,29.94,SW,228,0.0,0.0,95,0.00,,,0.08,WUHU216WMR968SP,2013-02-24 02:39:00,
2013-02-23 21:44:00,45.3,42.8,29.94,SW,228,0.0,0.0,95,0.00,,,0.08,WUHU216WMR968SP,2013-02-24 02:44:00,
2013-02-23 21:49:00,45.3,42.8,29.94,SW,228,0.0,0.0,95,0.00,,,0.08,WUHU216WMR968SP,2013-02-24 02:49:00,
2013-02-23 21:54:00,45.3,42.8,29.94,SW,228,0.0,0.0,95,0.00,,,0.08,WUHU216WMR968SP,2013-02-24 02:54:00,
2013-02-23 21:59:00,45.5,44.6,29.94,SW,228,0.0,0.0,96,0.00,,,0.08,WUHU216WMR968SP,2013-02-24 02:59:00,
2013-02-23 22:04:00,45.5,44.6,29.94,SW,228,0.0,0.0,96,0.00,,,0.08,WUHU216WMR968SP,2013-02-24 03:04:00,
2013-02-23 22:09:00,45.5,44.6,29.94,SW,228,0.0,0.0,95,0.00,,,0.08,WUHU216WMR968SP,2013-02-24 03:09:00,
2013-02-23 22:14:00,45.1,42.8,29.94,SW,228,0.0,0.0,95,0.00,,,0.08,WUHU216WMR968SP,2013-02-24 03:14:00,
2013-02-23 22:19:00,45.0,42.8,29.94,SW,228,0.0,0.0,95,0.00,,,0.08,WUHU216WMR968SP,2013-02-24 03:19:00,
2013-02-23 22:24:00,44.6,42.8,29.94,SW,228,0.0,0.0,95,0.00,,,0.08,WUHU216WMR968SP,2013-02-24 03:24:00,
2013-02-23 22:29:00,44.2,42.8,29.94,SW,228,0.0,0.0,95,0.00,,,0.08,WUHU216WMR968SP,2013-02-24 03:29:00,
2013-02-23 22:34:00,44.6,42.8,29.97,WSW,243,0.0,0.0,94,0.00,,,0.08,WUHU216WMR968SP,2013-02-24 03:34:00,
2013-02-23 22:39:00,44.8,42.8,29.97,WSW,243,0.0,0.0,93,0.00,,,0.08,WUHU216WMR968SP,2013-02-24 03:39:00,
2013-02-23 22:44:00,44.8,42.8,29.97,WSW,243,0.0,0.0,91,0.00,,,0.08,WUHU216WMR968SP,2013-02-24 03:44:00,
2013-02-23 22:49:00,45.1,41.0,29.97,West,272,0.0,4.6,89,0.00,,,0.08,WUHU216WMR968SP,2013-02-24 03:49:00,
2013-02-23 22:54:00,45.3,41.0,29.97,West,272,0.0,4.6,87,0.00,,,0.08,WUHU216WMR968SP,2013-02-24 03:54:00,
2013-02-23 22:59:00,45.1,41.0,29.97,West,272,0.0,0.0,86,0.00,,,0.08,WUHU216WMR968SP,2013-02-24 03:59:00,
2013-02-23 23:04:00,44.8,41.0,29.97,West,274,0.0,4.1,85,0.00,,,0.08,WUHU216WMR968SP,2013-02-24 04:04:00,
2013-02-23 23:09:00,44.2,41.0,29.94,West,274,0.0,4.1,85,0.00,,,0.08,WUHU216WMR968SP,2013-02-24 04:09:00,
2013-02-23 23:14:00,43.3,39.2,29.94,West,274,0.0,0.0,84,0.00,,,0.08,WUHU216WMR968SP,2013-02-24 04:14:00,
2013-02-23 23:19:00,43.0,39.2,29.94,West,274,0.0,0.0,84,0.00,,,0.08,WUHU216WMR968SP,2013-02-24 04:19:00,
2013-02-23 23:24:00,42.4,39.2,29.94,West,274,0.0,0.0,85,0.00,,,0.08,WUHU216WMR968SP,2013-02-24 04:24:00,
2013-02-23 23:29:00,42.1,39.2,29.94,West,274,0.0,0.0,85,0.00,,,0.08,WUHU216WMR968SP,2013-02-24 04:29:00,
2013-02-23 23:34:00,41.7,37.4,29.97,West,274,0.0,0.0,86,0.00,,,0.08,WUHU216WMR968SP,2013-02-24 04:34:00,
2013-02-23 23:39:00,41.2,37.4,29.97,West,274,0.0,0.0,86,0.00,,,0.08,WUHU216WMR968SP,2013-02-24 04:39:00,
2013-02-23 23:44:00,41.0,37.4,29.97,West,274,0.0,0.0,86,0.00,,,0.08,WUHU216WMR968SP,2013-02-24 04:44:00,
2013-02-23 23:49:00,41.2,37.4,29.97,West,274,0.0,0.0,87,0.00,,,0.08,WUHU216WMR968SP,2013-02-24 04:49:00,
2013-02-23 23:54:00,41.2,37.4,29.97,West,274,0.0,0.0,86,0.00,,,0.08,WUHU216WMR968SP,2013-02-24 04:54:00,
2013-02-23 23:59:00,40.8,37.4,29.97,West,274,0.0,0.0,87,0.00,,,0.08,WUHU216WMR968SP,2013-02-24 04:59:00,